STARLINK-37282, 69190

Orbit data source: Space-Track

STARLINK-37282, 69190 is a payload satellite owned by SpaceX/Seattle (US) in LEO that was launched on Mon, 25 May 2026 UTC via an FALCON 9 launch vehicle from the Air Force Eastern Test Range (AFETR). Payload-class satellites include a variety of spacecraft equipped with specific instruments for various scientific and technological missions. These include communications satellites like Starlink; space stations such as the ISS; scientific satellites like the Hubble; Earth observation satellites from companies like Planet Labs, Umbra, and HawkEye 360; GPS; miniature CubeSats for education and research; and military/defense satellites.

Loading next visibility...
Identifier
69190, 2026-114J
Orbit
LEO
Country
Flag of USUS
Related business
Manufacturer
SpaceX/Seattle
Mission
Operational spacecraft
Bus & Motor
STARLINK V2MO, Unknown motor
Mass
575 kg wet, ~530 kg dry
Launch date (UTC)
2026-05-25 (4 weeks ago)
Launch vehicle
FALCON 9
Launch site
Air Force Eastern Test Range (AFETR)
Object type
Payload
Rocket body
Debris
Shape & HBR
Unknown
Radar Cross Section
Large (>1 m²)

Expand to show TLE details & history
Last TLE update: 19 hours ago

TLE from 19 hours ago
0 STARLINK-37282
1 69190U 26114J   26171.05705085  .00370344  00000-0  20193-2 0  9994
2 69190  53.1572 188.0411 0002049 137.3980 222.7201 15.78345159  5222
Epoch: 2026-06-20T01:22Z
TLE epoch observation values (Epoch: 2026-06-20T01:22:09.193Z)
Latitude
-0°
Longitude
-100.77435°
Altitude
337.058 km
Speed
7.707 km/s
True Right ascension
12h 32m 09s
True Declination
0° 00' 00"
Sunlit
Object was in daylight at epoch
Visualization orbit readout
Latitude
Unknown
Longitude
Unknown
Altitude
Unknown
Speed
Unknown
Apparent Right ascension
Unknown
Apparent Declination
Unknown
Sunlit
N/A
Visualization observer readout
Local Sidereal Time
07:15:08
Azimuth
Unknown
Elevation
Unknown
Doppler factor
Unknown
Orbital elements
Apogee altitude
336.767 km
Perigee altitude
334.015 km
Semi-major axis
6,713.528 km
Eccentricity
0.0002
Inclination
53.1572°
RAAN
188.0411°
Arg. of periapsis
137.398°
True anomaly
222.70417°
Mean anomaly
222.7201°
Eccentric anomaly
222.71214°
Mean motion
3.94564 °/min
Orbital period
91.24 mins
BSTAR
0.0020193
Loading maneuver chart data...
Computing Atmospheric mass density...
Loading historical data...
Loading historical data...
Loading historical data...
Loading historical data...
Loading historical data...
Loading historical data...
Loading historical data...

Documentation

Showing up to 5 results
|